| time (UTC) | temp C | wind direction | speed KPH | gust KPH | rain 1hr cm | rain 24hr cm | rain mn cm | humidity % | barometer mb |
| 20260507131634 | 8 | 91 | 1.6 | 11.3 | 0.00 | 0.79 | 0.00 | 61 | 1011.8 |
| 20260507130126 | 7 | 118 | 3.2 | 12.9 | 0.00 | 0.79 | 0.00 | 64 | 1012.0 |
| 20260507124635 | 7 | 136 | 3.2 | 9.7 | 0.00 | 1.09 | 0.00 | 66 | 1011.9 |
| 20260507123134 | 6 | 131 | 1.6 | 6.4 | 0.00 | 1.09 | 0.00 | 71 | 1011.7 |
| 20260507121625 | 6 | 92 | 1.6 | 4.8 | 0.00 | 1.09 | 0.00 | 73 | 1011.7 |
| 20260507120139 | 6 | 93 | 0.0 | 8.0 | 0.00 | 1.09 | 0.00 | 77 | 1011.6 |
| 20260507114636 | 5 | 72 | 1.6 | 6.4 | 0.00 | 1.32 | 0.00 | 80 | 1011.7 |
| 20260507113133 | 5 | 82 | 0.0 | 6.4 | 0.00 | 1.32 | 0.00 | 84 | 1011.6 |
| 20260507111645 | 3 | 65 | 0.0 | 3.2 | 0.00 | 1.32 | 0.00 | 91 | 1011.4 |
| 20260507110125 | 3 | 94 | 0.0 | 1.6 | 0.00 | 1.32 | 0.00 | 93 | 1011.1 |
| 20260507104628 | 2 | 94 | 0.0 | 0.0 | 0.00 | 1.55 | 0.00 | 92 | 1011.4 |
| 20260507103123 | 2 | 94 | 0.0 | 0.0 | 0.00 | 1.55 | 0.00 | 92 | 1011.3 |
| 20260507101622 | 2 | 94 | 0.0 | 0.0 | 0.00 | 1.55 | 0.00 | 91 | 1011.1 |
| 20260507100140 | 2 | 94 | 0.0 | 0.0 | 0.00 | 1.55 | 0.00 | 90 | 1011.1 |
| 20260507094654 | 2 | 94 | 0.0 | 0.0 | 0.00 | 1.65 | 0.00 | 90 | 1011.2 |
| 20260507093129 | 2 | 94 | 0.0 | 0.0 | 0.00 | 1.65 | 0.00 | 89 | 1010.9 |
| 20260507091640 | 2 | 94 | 0.0 | 0.0 | 0.00 | 1.65 | 0.00 | 89 | 1011.1 |
| 20260507090137 | 3 | 94 | 0.0 | 0.0 | 0.00 | 1.65 | 0.00 | 89 | 1011.1 |
| 20260507084655 | 3 | 94 | 0.0 | 0.0 | 0.00 | 1.78 | 0.00 | 88 | 1011.3 |
| 20260507083130 | 3 | 93 | 0.0 | 0.0 | 0.00 | 1.78 | 0.00 | 87 | 1011.2 |
| 20260507081621 | 3 | 93 | 0.0 | 0.0 | 0.00 | 1.78 | 0.00 | 86 | 1011.3 |
| 20260507080134 | 4 | 93 | 0.0 | 0.0 | 0.00 | 1.78 | 0.00 | 84 | 1011.0 |
| 20260507074626 | 5 | 93 | 0.0 | 1.6 | 0.00 | 1.80 | 0.00 | 83 | 1011.2 |
| 20260507073158 | 5 | 93 | 0.0 | 6.4 | 0.00 | 1.80 | 0.00 | 81 | 1011.0 |
| 20260507071632 | 5 | 84 | 0.0 | 4.8 | 0.00 | 1.80 | 0.00 | 80 | 1010.9 |
| 20260507070128 | 5 | 96 | 0.0 | 4.8 | 0.00 | 1.80 | 0.00 | 82 | 1011.0 |
| 20260507064631 | 5 | 101 | 0.0 | 3.2 | 0.00 | 1.85 | 0.00 | 83 | 1011.0 |
| 20260507063124 | 5 | 94 | 0.0 | 6.4 | 0.00 | 1.85 | 0.00 | 83 | 1011.1 |
| 20260507061626 | 6 | 101 | 0.0 | 6.4 | 0.00 | 1.85 | 0.00 | 84 | 1011.2 |
| 20260507060142 | 6 | 86 | 1.6 | 8.0 | 0.00 | 1.85 | 0.00 | 86 | 1011.2 |
| 20260507054636 | 6 | 101 | 3.2 | 8.0 | 0.00 | 1.85 | 0.00 | 87 | 1011.3 |
| 20260507053129 | 6 | 93 | 1.6 | 6.4 | 0.00 | 1.85 | 0.00 | 88 | 1011.4 |
| 20260507051644 | 6 | 86 | 1.6 | 14.5 | 0.00 | 1.85 | 0.00 | 90 | 1011.3 |
| 20260507050139 | 6 | 105 | 0.0 | 1.6 | 0.00 | 1.85 | 0.00 | 91 | 1011.2 |
| 20260507044638 | 6 | 70 | 1.6 | 6.4 | 0.00 | 1.85 | 0.00 | 92 | 1011.2 |
| 20260507043151 | 7 | 108 | 0.0 | 4.8 | 0.00 | 1.85 | 0.00 | 93 | 1010.9 |
| 20260507041641 | 7 | 94 | 3.2 | 9.7 | 0.00 | 1.85 | 0.00 | 93 | 1010.7 |
| 20260507040132 | 7 | 164 | 0.0 | 1.6 | 0.00 | 1.85 | 0.00 | 94 | 1010.6 |
| 20260507034629 | 7 | 120 | 0.0 | 1.6 | 0.00 | 1.96 | 1.85 | 94 | 1010.3 |
| 20260507033129 | 7 | 109 | 0.0 | 4.8 | 0.00 | 1.96 | 1.85 | 94 | 1010.3 |
| 20260507031646 | 7 | 101 | 0.0 | 0.0 | 0.00 | 1.96 | 1.85 | 94 | 1010.5 |
| 20260507030143 | 7 | 101 | 0.0 | 0.0 | 0.00 | 1.96 | 1.85 | 94 | 1010.5 |
| 20260507024639 | 7 | 101 | 0.0 | 0.0 | 0.00 | 2.11 | 1.85 | 94 | 1010.3 |
| 20260507023138 | 7 | 101 | 0.0 | 0.0 | 0.00 | 2.11 | 1.85 | 94 | 1010.6 |
| 20260507021636 | 7 | 101 | 0.0 | 0.0 | 0.00 | 2.11 | 1.85 | 94 | 1010.5 |
| 20260507020153 | 7 | 101 | 0.0 | 0.0 | 0.00 | 2.11 | 1.85 | 94 | 1010.6 |
| 20260507014627 | 7 | 101 | 0.0 | 0.0 | 0.00 | 2.21 | 1.85 | 94 | 1010.6 |
| 20260507013127 | 7 | 101 | 0.0 | 0.0 | 0.00 | 2.21 | 1.85 | 93 | 1010.5 |
| 20260507010136 | 7 | 101 | 0.0 | 0.0 | 0.00 | 2.21 | 1.85 | 93 | 1010.5 |
| 20260507004656 | 7 | 101 | 0.0 | 0.0 | 0.00 | 2.21 | 1.85 | 92 | 1010.4 |
| 20260507003129 | 7 | 101 | 0.0 | 1.6 | 0.00 | 2.21 | 1.85 | 92 | 1010.3 |
| 20260507001647 | 7 | 101 | 0.0 | 3.2 | 0.00 | 2.21 | 1.85 | 92 | 1010.1 |
| 20260507000143 | 7 | 99 | 0.0 | 8.0 | 0.00 | 2.21 | 1.85 | 92 | 1009.9 |
| 20260506234631 | 7 | 101 | 0.0 | 1.6 | 0.00 | 2.21 | 1.85 | 93 | 1009.7 |
| 20260506233123 | 7 | 119 | 0.0 | 1.6 | 0.00 | 2.21 | 1.85 | 93 | 1009.5 |
| 20260506231622 | 7 | 119 | 0.0 | 0.0 | 0.00 | 2.21 | 1.85 | 92 | 1008.7 |
| 20260506230134 | 7 | 119 | 0.0 | 0.0 | 0.00 | 2.21 | 1.85 | 92 | 1008.9 |
| 20260506224635 | 7 | 119 | 0.0 | 1.6 | 0.00 | 2.21 | 1.85 | 91 | 1009.1 |
| 20260506223129 | 7 | 94 | 0.0 | 3.2 | 0.00 | 2.21 | 1.85 | 91 | 1009.3 |
| 20260506221625 | 7 | 103 | 0.0 | 3.2 | 0.00 | 2.21 | 1.85 | 92 | 1009.5 |
| 20260506220144 | 7 | 113 | 0.0 | 3.2 | 0.00 | 2.21 | 1.85 | 92 | 1009.2 |
| 20260506214659 | 7 | 121 | 0.0 | 4.8 | 0.00 | 2.34 | 1.85 | 93 | 1009.1 |
| 20260506213136 | 7 | 123 | 1.6 | 6.4 | 0.00 | 2.34 | 1.85 | 94 | 1009.0 |
| 20260506211628 | 7 | 104 | 0.0 | 6.4 | 0.00 | 2.34 | 1.85 | 94 | 1008.8 |
| 20260506210144 | 7 | 98 | 1.6 | 4.8 | 0.03 | 2.34 | 1.85 | 94 | 1008.7 |
| 20260506204635 | 7 | 84 | 1.6 | 6.4 | 0.03 | 2.39 | 1.85 | 95 | 1008.6 |
| 20260506203142 | 7 | 103 | 0.0 | 3.2 | 0.03 | 2.39 | 1.85 | 95 | 1008.4 |
| 20260506201636 | 7 | 127 | 0.0 | 6.4 | 0.03 | 2.39 | 1.85 | 95 | 1008.1 |
| 20260506200135 | 7 | 96 | 1.6 | 9.7 | 0.03 | 2.36 | 1.83 | 95 | 1008.2 |
| 20260506194622 | 7 | 129 | 1.6 | 8.0 | 0.05 | 2.36 | 1.83 | 95 | 1008.1 |
| 20260506193146 | 7 | 115 | 1.6 | 4.8 | 0.05 | 2.36 | 1.83 | 95 | 1008.2 |
| 20260506191635 | 7 | 122 | 0.0 | 3.2 | 0.05 | 2.36 | 1.83 | 95 | 1008.1 |
| 20260506190134 | 7 | 134 | 0.0 | 6.4 | 0.03 | 2.34 | 1.80 | 95 | 1008.0 |
| 20260506184634 | 7 | 150 | 1.6 | 9.7 | 0.03 | 2.36 | 1.78 | 95 | 1007.9 |
| 20260506183134 | 8 | 107 | 1.6 | 8.0 | 0.03 | 2.36 | 1.78 | 95 | 1007.6 |
| 20260506181629 | 8 | 135 | 1.6 | 4.8 | 0.03 | 2.36 | 1.78 | 95 | 1007.4 |
| 20260506180125 | 8 | 120 | 1.6 | 4.8 | 0.05 | 2.36 | 1.78 | 95 | 1007.1 |
| 20260506174639 | 8 | 106 | 0.0 | 3.2 | 0.03 | 2.34 | 1.75 | 95 | 1007.2 |
| 20260506173142 | 8 | 132 | 0.0 | 4.8 | 0.05 | 2.34 | 1.75 | 95 | 1006.9 |
| 20260506171633 | 7 | 120 | 1.6 | 6.4 | 0.10 | 2.34 | 1.75 | 95 | 1006.9 |
| 20260506170136 | 7 | 135 | 0.0 | 4.8 | 0.13 | 2.31 | 1.73 | 95 | 1007.1 |
| 20260506164628 | 7 | 114 | 0.0 | 3.2 | 0.15 | 2.31 | 1.73 | 96 | 1007.1 |
| 20260506163125 | 7 | 142 | 1.6 | 4.8 | 0.18 | 2.29 | 1.70 | 95 | 1007.1 |
| 20260506161622 | 7 | 141 | 0.0 | 3.2 | 0.15 | 2.24 | 1.65 | 95 | 1007.1 |
| 20260506160135 | 7 | 123 | 0.0 | 1.6 | 0.13 | 2.18 | 1.60 | 96 | 1007.4 |
| 20260506154632 | 7 | 135 | 0.0 | 1.6 | 0.10 | 2.16 | 1.57 | 95 | 1007.4 |
| 20260506153129 | 7 | 138 | 0.0 | 0.0 | 0.08 | 2.11 | 1.52 | 95 | 1007.7 |
| 20260506151636 | 7 | 138 | 1.6 | 3.2 | 0.08 | 2.08 | 1.50 | 95 | 1007.5 |
| 20260506150137 | 7 | 147 | 0.0 | 0.0 | 0.08 | 2.06 | 1.47 | 95 | 1007.0 |
| 20260506144630 | 7 | 147 | 0.0 | 0.0 | 0.13 | 2.06 | 1.47 | 95 | 1007.1 |
| 20260506143148 | 7 | 148 | 0.0 | 3.2 | 0.18 | 2.03 | 1.45 | 95 | 1007.3 |
| 20260506141629 | 7 | 147 | 0.0 | 3.2 | 0.23 | 2.01 | 1.42 | 95 | 1007.3 |
| 20260506140126 | 7 | 146 | 0.0 | 4.8 | 0.33 | 1.98 | 1.40 | 95 | 1007.2 |
| 20260506133144 | 7 | 126 | 0.0 | 6.4 | 0.38 | 1.85 | 1.27 | 95 | 1007.3 |